CW6344 Lexington Park MD US current weather conditions

sailwx.info

Wind from 049 at 0 knots gusting 0

Air temperature 7.8° C
Dewpoint 3.2° C

Last reported at 2019-Dec-08 20:46 UTC.
Time now 2019-Dec-08 21:23 UTC

Location: N 38°18' W 076°29'.
View on Google Maps.

See reports from other nearby stations

  
Tides and Currents Weather Stations Pressure Air Temp Water Temp Dewpoint Dewpoint Depression Visibility Wind Speed Wind Dir Waves Ship Positions
date/time (UTC)wind fromknots sea level pressurealtimeterstation pressurevisibilityair tempwater tempwave heightnotes
2019-Dec-08 20:46 049 0 gusting 0 7.8
2019-Dec-08 20:36 168 8.3
2019-Dec-08 20:26 134 1 gusting 1 8.3
2019-Dec-08 20:06 090 0 gusting 0 8.3
2019-Dec-08 19:56 144 0 gusting 0 8.9
2019-Dec-08 19:46 087 1 gusting 1 8.3
2019-Dec-08 19:16 088 1 gusting 2 8.9
2019-Dec-08 18:56 159 2 gusting 4 8.9
2019-Dec-08 18:46 238 0 gusting 0 8.9
2019-Dec-08 18:36 292 8.9
2019-Dec-08 18:26 202 0 gusting 1 8.9
2019-Dec-08 18:16 019 9.4
2019-Dec-08 17:56 076 8.3
2019-Dec-08 17:36 082 0 gusting 1 7.8
2019-Dec-08 17:26 085 1 gusting 3 8.3
2019-Dec-08 17:16 105 1 gusting 2 7.8
2019-Dec-08 17:06 079 7.8
2019-Dec-08 16:56 175 0 gusting 0 7.8
2019-Dec-08 16:46 107 7.2
2019-Dec-08 16:36 125 0 gusting 1 7.2
2019-Dec-08 16:06 076 1 gusting 2 6.7
2019-Dec-08 15:36 005 0 gusting 2 6.1
2019-Dec-08 15:06 087 1 gusting 2 5.6
2019-Dec-08 14:56 061 0 gusting 0 5.0
2019-Dec-08 14:46 097 5.0
2019-Dec-08 14:36 096 1 gusting 1 4.4
2019-Dec-08 14:26 082 0 gusting 0 4.4
2019-Dec-08 14:16 029 0 gusting 1 3.9
2019-Dec-08 14:06 086 3.3
2019-Dec-08 13:16 068 -0.0
2019-Dec-08 12:46 068 -0.6
2019-Dec-08 12:36 068 -0.6
2019-Dec-08 12:26 068 -0.6
2019-Dec-08 11:56 068 -0.6
2019-Dec-08 11:46 068 -0.6
2019-Dec-08 11:26 068 -0.6
2019-Dec-08 11:16 068 -0.6
2019-Dec-08 10:46 068 -0.6
2019-Dec-08 10:36 068 -0.6
2019-Dec-08 10:26 068 -0.6
2019-Dec-08 10:16 068 -0.6
2019-Dec-08 09:56 068 -1.1
2019-Dec-08 09:16 068 -1.7
2019-Dec-08 09:06 068 -1.7
2019-Dec-08 08:36 068 -2.2
2019-Dec-08 07:35 068 -2.2
2019-Dec-08 07:25 068 -2.2
2019-Dec-08 07:15 068 -2.2
2019-Dec-08 07:05 068 -2.2
2019-Dec-08 06:55 068 -2.2
2019-Dec-08 06:35 068 -2.2
2019-Dec-08 06:25 068 -2.2
2019-Dec-08 06:15 068 -2.2
2019-Dec-08 06:05 068 -1.7
2019-Dec-08 05:45 068 -1.7
2019-Dec-08 05:25 068 -1.7
2019-Dec-08 05:05 068 -1.1
2019-Dec-08 04:45 068 -1.7
2019-Dec-08 04:05 068 -1.1
2019-Dec-08 03:25 068 -0.6
2019-Dec-08 03:15 068 -0.6
2019-Dec-08 03:05 068 -0.0
2019-Dec-08 02:55 068 -0.0
2019-Dec-08 02:35 068 -0.0
2019-Dec-08 02:15 068 -0.0
2019-Dec-08 01:25 068 0.6
2019-Dec-08 01:15 068 0.6
2019-Dec-08 00:45 068 0.6
2019-Dec-08 00:25 068 1.1
2019-Dec-08 00:15 068 1.1
2019-Dec-08 00:05 068 1.1
2019-Dec-07 23:55 068 1.1
2019-Dec-07 23:25 068 1.7
2019-Dec-07 22:55 068 2.2
2019-Dec-07 22:45 068 2.2
2019-Dec-07 21:55 068 3.3
2019-Dec-07 21:45 068 3.9
2019-Dec-07 21:25 068 4.4
2019-Dec-07 20:45 068 5.6
2019-Dec-07 20:35 360 5.6
2019-Dec-07 20:15 094 1 gusting 2 5.6
2019-Dec-07 20:05 068 0 gusting 1 6.1
2019-Dec-07 19:55 076 0 gusting 0 6.1
2019-Dec-07 19:45 016 6.1
2019-Dec-07 19:35 033 6.1
2019-Dec-07 19:25 101 6.1
2019-Dec-07 19:05 331 2 gusting 2 6.1
2019-Dec-07 18:55 067 0 gusting 0 6.1
2019-Dec-07 18:25 102 6.1
2019-Dec-07 18:05 038 0 gusting 0 5.6
2019-Dec-07 17:55 317 1 gusting 1 6.1
2019-Dec-07 17:45 078 5.6
2019-Dec-07 17:25 059 1 gusting 1 5.6
2019-Dec-07 16:15 355 0 gusting 3 5.6
2019-Dec-07 16:05 344 2 gusting 2 5.6
2019-Dec-07 15:45 030 5.0
2019-Dec-07 15:05 088 1 gusting 4 5.0
2019-Dec-07 14:35 273 5.0
2019-Dec-07 14:25 344 4.4
2019-Dec-07 13:55 019 1 gusting 1 3.9
2019-Dec-07 13:45 067 0 gusting 1 3.9
2019-Dec-07 13:35 355 1 gusting 1 3.3
2019-Dec-07 13:15 005 3.3
2019-Dec-07 13:05 066 2.8
2019-Dec-07 12:55 066 2.8
2019-Dec-07 12:35 103 2.8
2019-Dec-07 12:15 026 2.8
2019-Dec-07 11:55 022 2 gusting 2 2.8
2019-Dec-07 11:35 346 0 gusting 0 3.3
2019-Dec-07 10:55 350 0 gusting 0 3.9
2019-Dec-07 10:45 296 2 gusting 3 3.9
2019-Dec-07 10:35 005 1 gusting 2 3.9
2019-Dec-07 10:25 005 0 gusting 1 4.4
2019-Dec-07 10:15 340 1 gusting 1 4.4
2019-Dec-07 09:55 345 4 gusting 4 5.0
2019-Dec-07 09:45 355 1 gusting 1 5.0
2019-Dec-07 09:25 022 0 gusting 2 5.6
2019-Dec-07 09:15 016 1 gusting 1 5.6
2019-Dec-07 08:55 335 1 gusting 2 6.1
2019-Dec-07 08:35 010 0 gusting 1 6.7
2019-Dec-07 08:25 347 1 gusting 1 6.7
2019-Dec-07 08:15 355 2 gusting 2 6.7
2019-Dec-07 08:05 342 6.7
2019-Dec-07 07:55 320 7.2
2019-Dec-07 07:45 308 2 gusting 2 7.2
2019-Dec-07 07:35 161 0 gusting 2 7.2
2019-Dec-07 07:25 348 0 gusting 2 7.2
2019-Dec-07 07:05 005 0 gusting 2 7.8
2019-Dec-07 06:45 347 5 gusting 5 8.3
2019-Dec-07 06:35 311 0 gusting 2 8.9
2019-Dec-07 06:25 336 8.9
2019-Dec-07 05:45 355 3 gusting 3 10.0
2019-Dec-07 05:35 341 10.0
2019-Dec-07 05:15 345 10.0
2019-Dec-07 04:55 313 1 gusting 1 9.4
2019-Dec-07 04:45 317 9.4
2019-Dec-07 04:15 304 9.4
2019-Dec-07 04:05 294 9.4
2019-Dec-07 03:55 295 9.4
2019-Dec-07 03:45 286 9.4
2019-Dec-07 03:15 286 10.0
2019-Dec-07 02:45 286 10.0
2019-Dec-07 02:25 301 10.0
2019-Dec-07 02:15 307 0 gusting 1 10.0
2019-Dec-07 02:05 331 10.6
2019-Dec-07 01:55 327 2 gusting 2 10.6
2019-Dec-07 01:45 244 2 gusting 2 10.6
2019-Dec-07 00:45 259 10.6
2019-Dec-07 00:35 256 10.6
2019-Dec-07 00:25 229 0 gusting 0 10.6
2019-Dec-07 00:15 275 10.6
2019-Dec-07 00:05 234 1 gusting 2 10.6
2019-Dec-06 23:55 278 1 gusting 1 10.6
2019-Dec-06 23:25 309 11.1
2019-Dec-06 22:55 308 2 gusting 2 11.1
2019-Dec-06 22:45 140 11.1
2019-Dec-06 22:35 324 11.1
2019-Dec-06 22:25 254 10.6
2019-Dec-06 21:45 263 11.1
2019-Dec-06 21:35 264 11.1
2019-Dec-06 21:25 246 11.1
2019-Dec-06 21:15 225 0 gusting 0 11.1
2019-Dec-06 21:05 191 1 gusting 1 11.1